San Salvador, El Salvador

8:48 AM CST on February 25, 2018 (GMT -0600)
San Salvador

Weather History for 78663 - October, 2012

Change the Weather History Date:

Friday, October 19, 2012

  Actual Average Record
Temperature  
Mean Temperature 76 °F -  
Max Temperature 80 °F 84 °F - ()
Min Temperature 71 °F 65 °F - ()
Cooling Degree Days 10    
Growing Degree Days 26 (Base 50)    
Moisture  
Dew Point 73 °F    
Average Humidity 96    
Maximum Humidity 100    
Minimum Humidity 84    
Precipitation  
Precipitation 0.00 in 0.13 in - ()
Sea Level Pressure  
Sea Level Pressure 29.94 in    
Wind  
Wind Speed 2 mph ()    
Max Wind Speed 7 mph    
Max Gust Speed -    
Visibility 5.5 miles    
Events Rain , Thunderstorm    
T = Trace of Precipitation, MM = Missing Value Source: Averaged Metar Reports

Daily Weather History Graph

Daily Weather History Graph

Search for Another Location

Airport or City:

Trip Planner

Search our weather history database for the weather conditions in past years. The results will help you decide how hot, cold, wet, or windy it might be!

Date:

Astronomy

Oct. 19, 2012 Rise Set
Actual Time 5:47 AM CST 5:34 PM CST
Civil Twilight 5:26 AM CST 5:56 PM CST
Nautical Twilight 5:01 AM CST 6:21 PM CST
Astronomical Twilight 4:36 AM CST 6:45 PM CST
Moon 9:58 AM CST (10/19) 9:43 PM CST (10/19)
Length of Visible Light 12h 29m
Length of Day
11h 46m
Waxing Crescent, 24% of the Moon is Illuminated
Oct 19
Waxing Crescent
Oct 21
First Quarter
Oct 29
Full
Nov 6
Last Quarter
Nov 13
New

Hourly Weather History & Observations

Time (CST) Temp. Heat Index Dew Point Humidity Pressure Visibility Wind Dir Wind Speed Gust Speed Precip Events Conditions
3:50 AM - - - N/A% - - North - - N/A   Unknown
5:50 AM 71.6 °F - 71.6 °F 100% 29.92 in 6.2 mi Calm Calm - N/A   Mostly Cloudy
6:50 AM 73.4 °F - 73.4 °F 100% 29.92 in 6.2 mi Calm Calm - N/A   Mostly Cloudy
7:50 AM 73.4 °F - 73.4 °F 100% 29.95 in 6.2 mi Calm Calm - N/A   Scattered Clouds
8:50 AM 75.2 °F - 73.4 °F 94% 29.95 in 6.2 mi East 2.3 mph - N/A   Scattered Clouds
9:50 AM 80.6 °F 86.2 °F 75.2 °F 84% 29.98 in 6.2 mi SSE 4.6 mph - N/A   Partly Cloudy
10:50 AM 78.8 °F - 75.2 °F 89% 29.95 in 6.2 mi SSE 4.6 mph - N/A Rain , Thunderstorm Light Thunderstorms and Rain
11:50 AM 77.0 °F - 73.4 °F 89% 29.95 in 6.2 mi SSE 5.8 mph - N/A Rain , Thunderstorm Thunderstorms and Rain
12:50 PM 73.4 °F - 73.4 °F 100% 29.95 in 6.2 mi South 6.9 mph - N/A   Scattered Clouds
1:50 PM 73.4 °F - 73.4 °F 100% 29.95 in 6.2 mi South 4.6 mph - N/A Rain Rain
2:50 PM 73.4 °F - 71.6 °F 94% 29.95 in 6.2 mi South 4.6 mph - N/A   Partly Cloudy
3:50 PM 75.2 °F - 71.6 °F 89% 29.95 in 6.2 mi SSE 4.6 mph - N/A   Partly Cloudy
4:50 PM 73.4 °F - 71.6 °F 94% 29.95 in 6.2 mi NNE 2.3 mph - N/A   Partly Cloudy
5:50 PM 71.6 °F - 71.6 °F 100% 29.92 in 6.2 mi Calm Calm - N/A   Partly Cloudy
6:50 PM 71.6 °F - 71.6 °F 100% 29.92 in 6.2 mi NNW 4.6 mph - N/A   Partly Cloudy
7:50 PM 71.6 °F - 71.6 °F 100% 29.92 in 2.5 mi NNW 3.5 mph - N/A   Scattered Clouds
8:50 PM 71.6 °F - 71.6 °F 100% 29.95 in 6.2 mi NNW 3.5 mph - N/A   Partly Cloudy
9:50 PM 71.6 °F - 71.6 °F 100% 29.95 in 2.5 mi Calm Calm - N/A   Partly Cloudy
10:50 PM 71.6 °F - 71.6 °F 100% 29.95 in 3.1 mi NNW 2.3 mph - N/A Rain Rain Showers
11:50 PM 71.6 °F - 71.6 °F 100% 29.95 in 3.7 mi North 2.3 mph - N/A Rain Rain Showers